User: anonymous   Login
Location: Izdebno
(52.6670°N, 16.2170°E)
Time: 22:42:46
(UTC+02:00)
Language:

Transit 4A - Orbit

View from above orbital plane
View from above orbital plane
View from above satellite
View from above satellite

Ground track
Ground track

The orbit data is extracted from the following two-line orbital elements,

1   116U 61015A   24147.54435567  .00000124  00000-0  15412-3 0  9991
2   116  66.8100 289.6903 0068618  79.0526 281.8264 13.92044470192575
Epoch (UTC): 26 May 2024 13:03:52
Eccentricity: 0.0068618
inclination: 66.8100°
perigee height: 871 km
apogee height: 971 km
right ascension of ascending node: 289.6903°
argument of perigee: 79.0526°
revolutions per day: 13.92044470
mean anomaly at epoch: 281.8264°
orbit number at epoch: 19257

The dashed part of the orbit path shows where the satellite is in the earth's shadow,  

DLR